This is the latest recevied weather packets stored in our database for station/object KC3UTO. If no packets are shown the sender has not sent any weather packets the latest 1 day(s).
| Time | Temp. | Humidity | Pressure | Rain* | Wind** | Luminosity | Snow |
|---|---|---|---|---|---|---|---|
| 1777999558 | 27.22° C | 34% | 1008.8 hPa | 0 mm | 2.68 m/s, 276° | 137 W/m² | - |
| 1777999256 | 27.22° C | 36% | 1008.7 hPa | 0 mm | 0.45 m/s, 308° | 133 W/m² | - |
| 1777998954 | 26.67° C | 34% | 1009.1 hPa | 0 mm | 0.89 m/s, 236° | 112 W/m² | - |
| 1777998651 | 26.67° C | 34% | 1009.3 hPa | 0 mm | 2.24 m/s, 251° | 109 W/m² | - |
| 1777998349 | 26.67° C | 35% | 1009.3 hPa | 0 mm | 5.36 m/s, 231° | 543 W/m² | - |
| 1777998047 | 26.67° C | 36% | 1009.1 hPa | 0 mm | 1.79 m/s, 231° | 898 W/m² | - |
| 1777997743 | 26.67° C | 37% | 1009 hPa | 0 mm | 2.24 m/s, 241° | 897 W/m² | - |
| 1777997441 | 26.11° C | 37% | 1009.3 hPa | 0 mm | 1.34 m/s, 321° | 889 W/m² | - |
| 1777997138 | 26.11° C | 36% | 1009.3 hPa | 0 mm | 1.79 m/s, 277° | 700 W/m² | - |
| 1777996836 | 26.67° C | 36% | 1009.3 hPa | 0 mm | 1.79 m/s, 236° | 478 W/m² | - |
| 1777996539 | 26.11° C | 38% | 1009.3 hPa | 0 mm | 1.34 m/s, 261° | 883 W/m² | - |
| 1777996228 | 25.56° C | 37% | 1009.4 hPa | 0 mm | 3.13 m/s, 234° | 878 W/m² | - |
| 1777995925 | 25.56° C | 37% | 1009.3 hPa | 0 mm | 2.24 m/s, 257° | 855 W/m² | - |
| 1777995621 | 26.11° C | 36% | 1009.4 hPa | 0 mm | 2.24 m/s, 257° | 126 W/m² | - |
| 1777995318 | 26.11° C | 37% | 1009.5 hPa | 0 mm | 0.89 m/s, 276° | 114 W/m² | - |
| 1777995015 | 26.11° C | 38% | 1009.5 hPa | 0 mm | 2.68 m/s, 297° | 822 W/m² | - |
| 1777994712 | 25.56° C | 38% | 1009.5 hPa | 0 mm | 1.79 m/s, 282° | 831 W/m² | - |
| 1777994408 | 25.56° C | 37% | 1009.7 hPa | 0 mm | 1.79 m/s, 144° | 829 W/m² | - |
| 1777994103 | 25.56° C | 38% | 1009.5 hPa | 0 mm | 1.34 m/s, 269° | 827 W/m² | - |
| 1777993800 | 25° C | 39% | 1009.6 hPa | 0 mm | 0.89 m/s, 237° | 701 W/m² | - |
| 1777993497 | 25° C | 37% | 1009.6 hPa | 0 mm | 2.68 m/s, 242° | 358 W/m² | - |
| 1777993196 | 25° C | 39% | 1009.6 hPa | 0 mm | 0.89 m/s, 276° | 798 W/m² | - |
| 1777992894 | 25° C | 38% | 1009.5 hPa | 0 mm | 3.13 m/s, 293° | 787 W/m² | - |
| 1777992593 | 24.44° C | 40% | 1009.6 hPa | 0 mm | 0.89 m/s, 269° | 774 W/m² | - |
| 1777992290 | 24.44° C | 39% | 1009.7 hPa | 0 mm | 0.89 m/s, 313° | 764 W/m² | - |
* Rain latest hour (hover to see other rain measurements)
** Current wind speed in m/s (hover to see current wind gust speed)